1546333200.57,34793,0.0,0.0,-9.29,-9.71,-9.71,0,*58
1546333201.83,34794,0.0,0.0,-9.29,-9.71,-9.61,0,*5E
1546333203.09,34795,0.0,0.0,-9.29,-9.61,-9.75,0,*5B
1546333204.3,34796,0.0,0.0,-9.31,-9.75,-9.71,0,*50
1546333205.5,34797,0.0,0.0,-9.27,-9.67,-9.71,0,*55
1546333206.71,34798,0.0,0.0,-9.27,-9.67,-9.67,0,*5D
1546333207.91,34799,0.0,0.0,-9.27,-9.67,-9.67,0,*5C
1546333209.12,34800,0.0,0.0,-9.27,-9.67,-9.67,0,*53
1546333210.36,34801,0.0,0.0,-9.29,-9.71,-9.71,0,*5C
1546333211.56,34802,0.0,0.0,-9.27,-9.67,-9.67,0,*51
1546333212.77,34803,0.0,0.0,-9.23,-9.71,-9.67,0,*53
1546333213.97,34804,0.0,0.0,-9.27,-9.67,-9.67,0,*57
1546333215.18,34805,0.0,0.0,-9.27,-9.67,-9.71,0,*51
1546333216.38,34806,0.0,0.0,-9.27,-9.67,-9.67,0,*55
1546333217.59,34807,0.0,0.0,-9.27,-9.67,-9.71,0,*53
1546333218.8,34808,0.0,0.0,-9.27,-9.71,-9.67,0,*5C
1546333220.01,34809,0.0,0.0,-9.27,-9.67,-9.67,0,*5A
1546333221.21,34810,0.0,0.0,-9.27,-9.67,-9.67,0,*52
1546333222.42,34811,0.0,0.0,-9.27,-9.67,-9.67,0,*53
1546333223.63,34812,0.0,0.0,-9.27,-9.71,-9.71,0,*50
1546333224.84,34813,0.0,0.0,-9.27,-9.71,-9.71,0,*51
1546333226.05,34814,0.0,0.0,-9.27,-9.67,-9.71,0,*51
1546333227.26,34815,0.0,0.0,-9.27,-9.71,-9.67,0,*50
1546333228.47,34816,0.0,0.0,-9.27,-9.67,-9.71,0,*53
1546333229.68,34817,0.0,0.0,-9.27,-9.71,-9.67,0,*52
1546333230.88,34818,0.0,0.0,-9.27,-9.67,-9.71,0,*5D
1546333232.09,34819,0.0,0.0,-9.27,-9.67,-9.71,0,*5C
1546333233.29,34820,0.0,0.0,-9.23,-9.67,-9.67,0,*55
1546333234.49,34821,0.0,0.0,-9.27,-9.67,-9.67,0,*50
1546333235.7,34822,0.0,0.0,-9.27,-9.67,-9.71,0,*54
1546333236.9,34823,0.0,0.0,-9.23,-9.71,-9.67,0,*51
1546333238.1,34824,0.0,0.0,-9.23,-9.67,-9.67,0,*51
1546333239.31,34825,0.0,0.0,-9.27,-9.67,-9.67,0,*54
1546333240.52,34826,0.0,0.0,-9.27,-9.71,-9.71,0,*57
1546333241.73,34827,0.0,0.0,-9.27,-9.67,-9.71,0,*51
1546333242.93,34828,0.0,0.0,-9.23,-9.67,-9.67,0,*5D
1546333244.14,34829,0.0,0.0,-9.27,-9.71,-9.67,0,*5F
1546333245.34,34830,0.0,0.0,-9.27,-9.67,-9.67,0,*50
1546333246.55,34831,0.0,0.0,-9.27,-9.71,-9.71,0,*51
1546333247.76,34832,0.0,0.0,-9.27,-9.67,-9.67,0,*52
1546333248.97,34833,0.0,0.0,-9.27,-9.71,-9.67,0,*54
1546333250.18,34834,0.0,0.0,-9.27,-9.67,-9.71,0,*53
1546333251.39,34835,0.0,0.0,-9.27,-9.71,-9.71,0,*55
1546333252.6,34836,0.0,0.0,-9.27,-9.71,-9.71,0,*56
1546333253.8,34837,0.0,0.0,-9.23,-9.67,-9.71,0,*54
1546333255.01,34838,0.0,0.0,-9.27,-9.67,-9.67,0,*58
1546333256.21,34839,0.0,0.0,-9.27,-9.67,-9.71,0,*5E
1546333257.41,34840,0.0,0.0,-9.23,-9.67,-9.67,0,*53
1546333258.62,34841,0.0,0.0,-9.27,-9.71,-9.71,0,*56
1546333259.84,34842,0.0,0.0,-9.27,-9.71,-9.67,0,*52
1546333261.03,34843,0.0,0.0,-9.23,-9.67,-9.71,0,*57
1546333262.25,34844,0.0,0.0,-9.27,-9.71,-9.67,0,*54
1546333263.45,34845,0.0,0.0,-9.27,-9.67,-9.67,0,*52
1546333264.66,34846,0.0,0.0,-9.23,-9.71,-9.67,0,*52
1546333265.86,34847,0.0,0.0,-9.23,-9.67,-9.71,0,*53
1546333267.06,34848,0.0,0.0,-9.27,-9.67,-9.67,0,*5F
1546333268.27,34849,0.0,0.0,-9.27,-9.67,-9.67,0,*5E
1546333269.47,34850,0.0,0.0,-9.27,-9.67,-9.67,0,*56
1546333270.68,34851,0.0,0.0,-9.27,-9.67,-9.71,0,*50
1546333271.89,34852,0.0,0.0,-9.27,-9.71,-9.71,0,*54
1546333273.09,34853,0.0,0.0,-9.23,-9.67,-9.67,0,*51
1546333274.29,34854,0.0,0.0,-9.23,-9.71,-9.67,0,*51
1546333275.49,34855,0.0,0.0,-9.23,-9.67,-9.67,0,*57
1546333276.69,34856,0.0,0.0,-9.23,-9.67,-9.67,0,*54
1546333277.9,34857,0.0,0.0,-9.27,-9.67,-9.71,0,*56
1546333279.1,34858,0.0,0.0,-9.23,-9.67,-9.67,0,*5A
1546333280.3,34859,0.0,0.0,-9.23,-9.67,-9.67,0,*5B
1546333281.51,34860,0.0,0.0,-9.27,-9.71,-9.67,0,*52
1546333282.72,34861,0.0,0.0,-9.27,-9.71,-9.71,0,*54
1546333283.92,34862,0.0,0.0,-9.23,-9.67,-9.67,0,*53
1546333285.12,34863,0.0,0.0,-9.23,-9.67,-9.71,0,*55
1546333286.32,34864,0.0,0.0,-9.23,-9.71,-9.67,0,*52
1546333287.53,34865,0.0,0.0,-9.27,-9.67,-9.71,0,*57
1546333288.73,34866,0.0,0.0,-9.23,-9.67,-9.67,0,*57
1546333289.93,34867,0.0,0.0,-9.23,-9.67,-9.67,0,*56
1546333291.13,34868,0.0,0.0,-9.23,-9.71,-9.71,0,*59
1546333292.33,34869,0.0,0.0,-9.23,-9.67,-9.71,0,*5F
1546333293.53,34870,0.0,0.0,-9.23,-9.67,-9.67,0,*50
1546333294.74,34871,0.0,0.0,-9.27,-9.67,-9.71,0,*52
1546333295.94,34872,0.0,0.0,-9.23,-9.67,-9.67,0,*52
1546333297.14,34873,0.0,0.0,-9.23,-9.71,-9.67,0,*54
1546333298.34,34874,0.0,0.0,-9.23,-9.67,-9.71,0,*53
1546333299.54,34875,0.0,0.0,-9.27,-9.67,-9.71,0,*56
1546333300.74,34876,0.0,0.0,-9.23,-9.67,-9.67,0,*56
1546333301.94,34877,0.0,0.0,-9.23,-9.67,-9.71,0,*50
1546333303.14,34878,0.0,0.0,-9.23,-9.67,-9.71,0,*5F
1546333304.35,34879,0.0,0.0,-9.23,-9.71,-9.67,0,*5E
1546333305.55,34880,0.0,0.0,-9.23,-9.71,-9.71,0,*5F
1546333306.76,34881,0.0,0.0,-9.27,-9.71,-9.67,0,*5D
1546333307.96,34882,0.0,0.0,-9.23,-9.67,-9.71,0,*5A
1546333309.16,34883,0.0,0.0,-9.23,-9.67,-9.67,0,*5C
1546333310.36,34884,0.0,0.0,-9.23,-9.67,-9.71,0,*5C
1546333311.56,34885,0.0,0.0,-9.23,-9.67,-9.71,0,*5D
1546333312.76,34886,0.0,0.0,-9.23,-9.67,-9.67,0,*59
1546333313.97,34887,0.0,0.0,-9.27,-9.71,-9.71,0,*5C
1546333315.18,34888,0.0,0.0,-9.27,-9.71,-9.71,0,*53
1546333316.38,34889,0.0,0.0,-9.23,-9.67,-9.67,0,*56
1546333317.59,34890,0.0,0.0,-9.27,-9.67,-9.71,0,*5D
1546333318.79,34891,0.0,0.0,-9.23,-9.67,-9.71,0,*58
1546333319.99,34892,0.0,0.0,-9.23,-9.67,-9.67,0,*5C
1546333321.19,34893,0.0,0.0,-9.23,-9.67,-9.71,0,*5A
1546333322.39,34894,0.0,0.0,-9.23,-9.67,-9.67,0,*5A
1546333323.59,34895,0.0,0.0,-9.23,-9.71,-9.67,0,*5C
1546333324.8,34896,0.0,0.0,-9.23,-9.71,-9.67,0,*5F
1546333325.99,34897,0.0,0.0,-9.23,-9.67,-9.67,0,*59
1546333327.2,34898,0.0,0.0,-9.27,-9.67,-9.71,0,*55
1546333328.41,34899,0.0,0.0,-9.27,-9.67,-9.67,0,*53
1546333329.6,34900,0.0,0.0,-9.23,-9.67,-9.71,0,*51
1546333330.81,34901,0.0,0.0,-9.23,-9.71,-9.67,0,*50
1546333332.02,34902,0.0,0.0,-9.27,-9.71,-9.71,0,*50
1546333333.22,34903,0.0,0.0,-9.23,-9.67,-9.71,0,*52
1546333334.43,34904,0.0,0.0,-9.27,-9.67,-9.67,0,*56
1546333335.63,34905,0.0,0.0,-9.23,-9.71,-9.71,0,*53
1546333336.84,34906,0.0,0.0,-9.23,-9.71,-9.67,0,*57
1546333338.04,34907,0.0,0.0,-9.23,-9.67,-9.71,0,*56
1546333339.24,34908,0.0,0.0,-9.23,-9.67,-9.71,0,*59
1546333340.43,34909,0.0,0.0,-9.23,-9.67,-9.71,0,*58
1546333341.63,34910,0.0,0.0,-9.23,-9.67,-9.71,0,*50
1546333342.83,34911,0.0,0.0,-9.23,-9.67,-9.71,0,*51
1546333344.04,34912,0.0,0.0,-9.23,-9.71,-9.67,0,*52
1546333345.24,34913,0.0,0.0,-9.23,-9.71,-9.71,0,*54
1546333346.45,34914,0.0,0.0,-9.23,-9.71,-9.71,0,*53
1546333347.65,34915,0.0,0.0,-9.23,-9.71,-9.71,0,*52
1546333348.85,34916,0.0,0.0,-9.23,-9.67,-9.71,0,*56
1546333350.05,34917,0.0,0.0,-9.23,-9.67,-9.67,0,*50
1546333351.25,34918,0.0,0.0,-9.23,-9.67,-9.71,0,*58
1546333352.45,34919,0.0,0.0,-9.23,-9.67,-9.71,0,*59
1546333353.65,34920,0.0,0.0,-9.23,-9.67,-9.67,0,*54
1546333354.85,34921,0.0,0.0,-9.23,-9.67,-9.67,0,*55
1546333356.05,34922,0.0,0.0,-9.23,-9.67,-9.71,0,*51
1546333357.25,34923,0.0,0.0,-9.23,-9.71,-9.67,0,*50
1546333358.53,34924,0.0,0.0,-9.21,-9.53,-9.61,0,*53
1546333359.8,34925,0.0,0.0,-9.21,-9.61,-9.61,0,*53
1546333361.05,34926,0.0,0.0,-9.21,-9.67,-9.61,0,*56
1546333362.31,34927,0.0,0.0,-9.21,-9.67,-9.61,0,*57
1546333363.56,34928,0.0,0.0,-9.21,-9.67,-9.61,0,*58
1546333364.83,34929,0.0,0.0,-9.21,-9.61,-9.61,0,*5F
1546333366.08,34930,0.0,0.0,-9.21,-9.61,-9.67,0,*51
1546333367.36,34931,0.0,0.0,-9.21,-9.61,-9.61,0,*56
1546333368.63,34932,0.0,0.0,-9.21,-9.61,-9.61,0,*55
1546333369.9,34933,0.0,0.0,-9.21,-9.61,-9.61,0,*54
1546333371.16,34934,0.0,0.0,-9.21,-9.61,-9.67,0,*55
1546333372.41,34935,0.0,0.0,-9.21,-9.61,-9.67,0,*54
1546333373.63,34936,0.0,0.0,-9.19,-9.61,-9.67,0,*5C
1546333374.89,34937,0.0,0.0,-9.21,-9.67,-9.61,0,*56
1546333376.14,34938,0.0,0.0,-9.21,-9.67,-9.61,0,*59
1546333377.39,34939,0.0,0.0,-9.21,-9.61,-9.67,0,*58
1546333378.66,34940,0.0,0.0,-9.21,-9.61,-9.61,0,*50
1546333379.94,34941,0.0,0.0,-9.21,-9.61,-9.61,0,*51
1546333381.21,34942,0.0,0.0,-9.21,-9.61,-9.61,0,*52
1546333382.46,34943,0.0,0.0,-9.21,-9.67,-9.61,0,*55
1546333383.71,34944,0.0,0.0,-9.21,-9.67,-9.61,0,*52
1546333384.92,34945,0.0,0.0,-9.23,-9.71,-9.67,0,*50
1546333386.17,34946,0.0,0.0,-9.21,-9.67,-9.61,0,*50
1546333387.4,34947,0.0,0.0,-9.21,-9.67,-9.67,0,*57
1546333388.65,34948,0.0,0.0,-9.21,-9.61,-9.67,0,*5E
1546333389.9,34949,0.0,0.0,-9.21,-9.67,-9.61,0,*5F
1546333391.15,34950,0.0,0.0,-9.21,-9.67,-9.61,0,*57
1546333392.4,34951,0.0,0.0,-9.21,-9.61,-9.67,0,*56
1546333393.66,34952,0.0,0.0,-9.21,-9.67,-9.61,0,*55
1546333394.88,34953,0.0,0.0,-9.21,-9.67,-9.67,0,*52
1546333396.13,34954,0.0,0.0,-9.21,-9.61,-9.67,0,*53
1546333397.36,34955,0.0,0.0,-9.21,-9.67,-9.67,0,*54
1546333398.61,34956,0.0,0.0,-9.21,-9.67,-9.61,0,*51
1546333399.84,34957,0.0,0.0,-9.21,-9.67,-9.67,0,*56
1546333401.09,34958,0.0,0.0,-9.21,-9.61,-9.67,0,*5F
1546333402.32,34959,0.0,0.0,-9.21,-9.67,-9.67,0,*58
1546333403.6,34960,0.0,0.0,-9.21,-9.53,-9.61,0,*53
1546333404.83,34961,0.0,0.0,-9.21,-9.67,-9.67,0,*53
1546333406.1,34962,0.0,0.0,-9.21,-9.61,-9.61,0,*50
1546333407.33,34963,0.0,0.0,-9.19,-9.67,-9.61,0,*5C
1546333408.56,34964,0.0,0.0,-9.19,-9.61,-9.67,0,*5B
1546333409.81,34965,0.0,0.0,-9.21,-9.61,-9.67,0,*51
1546333411.03,34966,0.0,0.0,-9.19,-9.67,-9.61,0,*59
1546333412.28,34967,0.0,0.0,-9.21,-9.67,-9.61,0,*53
1546333413.54,34968,0.0,0.0,-9.21,-9.67,-9.61,0,*5C
1546333414.79,34969,0.0,0.0,-9.21,-9.67,-9.61,0,*5D
1546333416.02,34970,0.0,0.0,-9.21,-9.67,-9.67,0,*53
1546333417.27,34971,0.0,0.0,-9.21,-9.61,-9.67,0,*54
1546333418.52,34972,0.0,0.0,-9.21,-9.61,-9.67,0,*57
1546333419.77,34973,0.0,0.0,-9.21,-9.61,-9.67,0,*56
1546333421.04,34974,0.0,0.0,-9.21,-9.61,-9.61,0,*57
1546333422.3,34975,0.0,0.0,-9.21,-9.61,-9.67,0,*50
1546333423.5,34976,0.0,0.0,-9.19,-9.67,-9.67,0,*5E
1546333424.75,34977,0.0,0.0,-9.21,-9.61,-9.67,0,*52
1546333426.02,34978,0.0,0.0,-9.21,-9.61,-9.61,0,*5B
1546333427.3,34979,0.0,0.0,-9.21,-9.61,-9.61,0,*5A
1546333428.55,34980,0.0,0.0,-9.19,-9.61,-9.61,0,*57
1546333429.82,34981,0.0,0.0,-9.21,-9.61,-9.61,0,*5D
1546333431.08,34982,0.0,0.0,-9.21,-9.61,-9.67,0,*58
1546333432.28,34983,0.0,0.0,-9.19,-9.67,-9.67,0,*54
1546333433.55,34984,0.0,0.0,-9.21,-9.61,-9.61,0,*58
1546333434.78,34985,0.0,0.0,-9.21,-9.67,-9.67,0,*59
1546333436.01,34986,0.0,0.0,-9.21,-9.67,-9.67,0,*5A
1546333437.26,34987,0.0,0.0,-9.21,-9.67,-9.61,0,*5D
1546333438.54,34988,0.0,0.0,-9.21,-9.61,-9.61,0,*54
1546333439.79,34989,0.0,0.0,-9.19,-9.61,-9.61,0,*5E
1546333441.02,34990,0.0,0.0,-9.19,-9.61,-9.67,0,*50
1546333442.27,34991,0.0,0.0,-9.21,-9.61,-9.67,0,*5A
1546333443.47,34992,0.0,0.0,-9.19,-9.67,-9.67,0,*54
1546333444.7,34993,0.0,0.0,-9.19,-9.67,-9.61,0,*53
1546333445.97,34994,0.0,0.0,-9.21,-9.61,-9.61,0,*59
1546333447.25,34995,0.0,0.0,-9.21,-9.61,-9.61,0,*58
1546333448.45,34996,0.0,0.0,-9.19,-9.67,-9.67,0,*50
1546333449.7,34997,0.0,0.0,-9.19,-9.61,-9.61,0,*51
1546333450.95,34998,0.0,0.0,-9.19,-9.61,-9.61,0,*5E
1546333452.18,34999,0.0,0.0,-9.21,-9.67,-9.67,0,*54
1546333453.43,35000,0.0,0.0,-9.19,-9.61,-9.61,0,*57
1546333454.66,35001,0.0,0.0,-9.19,-9.61,-9.67,0,*50
1546333455.93,35002,0.0,0.0,-9.21,-9.61,-9.61,0,*5E
1546333457.18,35003,0.0,0.0,-9.19,-9.61,-9.61,0,*54
1546333458.46,35004,0.0,0.0,-9.21,-9.61,-9.61,0,*58
1546333459.69,35005,0.0,0.0,-9.19,-9.61,-9.67,0,*54
1546333460.91,35006,0.0,0.0,-9.21,-9.67,-9.67,0,*5A
1546333462.14,35007,0.0,0.0,-9.19,-9.67,-9.61,0,*56
1546333463.39,35008,0.0,0.0,-9.21,-9.67,-9.61,0,*52
1546333464.62,35009,0.0,0.0,-9.19,-9.67,-9.61,0,*58
1546333465.85,35010,0.0,0.0,-9.19,-9.61,-9.67,0,*50
1546333467.12,35011,0.0,0.0,-9.21,-9.61,-9.61,0,*5C
1546333468.4,35012,0.0,0.0,-9.21,-9.61,-9.61,0,*5F
1546333469.65,35013,0.0,0.0,-9.19,-9.61,-9.61,0,*55
1546333470.88,35014,0.0,0.0,-9.21,-9.67,-9.67,0,*59
1546333472.1,35015,0.0,0.0,-9.21,-9.67,-9.67,0,*58
1546333473.33,35016,0.0,0.0,-9.21,-9.67,-9.67,0,*5B
1546333474.56,35017,0.0,0.0,-9.19,-9.61,-9.67,0,*57
1546333475.81,35018,0.0,0.0,-9.21,-9.67,-9.61,0,*53
1546333477.04,35019,0.0,0.0,-9.19,-9.61,-9.67,0,*59
1546333478.27,35020,0.0,0.0,-9.21,-9.67,-9.67,0,*5E
1546333479.52,35021,0.0,0.0,-9.21,-9.67,-9.61,0,*59
1546333480.77,35022,0.0,0.0,-9.19,-9.61,-9.61,0,*57
1546333482.02,35023,0.0,0.0,-9.19,-9.61,-9.61,0,*56
1546333483.25,35024,0.0,0.0,-9.19,-9.61,-9.67,0,*57
1546333484.5,35025,0.0,0.0,-9.21,-9.67,-9.61,0,*5D
1546333485.73,35026,0.0,0.0,-9.19,-9.61,-9.67,0,*55
1546333486.95,35027,0.0,0.0,-9.19,-9.67,-9.61,0,*54
1546333488.18,35028,0.0,0.0,-9.19,-9.67,-9.61,0,*5B
1546333489.43,35029,0.0,0.0,-9.19,-9.61,-9.61,0,*5C
1546333490.66,35030,0.0,0.0,-9.19,-9.67,-9.61,0,*52
1546333491.89,35031,0.0,0.0,-9.19,-9.61,-9.67,0,*53
1546333493.14,35032,0.0,0.0,-9.21,-9.67,-9.61,0,*5B
1546333494.34,35033,0.0,0.0,-9.19,-9.67,-9.67,0,*57
1546333495.59,35034,0.0,0.0,-9.19,-9.61,-9.61,0,*50
1546333496.8,35035,0.0,0.0,-9.19,-9.67,-9.67,0,*51
1546333498.05,35036,0.0,0.0,-9.21,-9.61,-9.67,0,*5F
1546333499.28,35037,0.0,0.0,-9.19,-9.67,-9.61,0,*55
1546333500.51,35038,0.0,0.0,-9.19,-9.61,-9.67,0,*5A
1546333501.76,35039,0.0,0.0,-9.21,-9.67,-9.61,0,*50
1546333503.01,35040,0.0,0.0,-9.21,-9.67,-9.61,0,*5E
1546333504.26,35041,0.0,0.0,-9.21,-9.67,-9.61,0,*5F
1546333505.51,35042,0.0,0.0,-9.19,-9.61,-9.61,0,*51
1546333506.72,35043,0.0,0.0,-9.19,-9.67,-9.67,0,*50
1546333507.94,35044,0.0,0.0,-9.19,-9.61,-9.67,0,*51
1546333509.17,35045,0.0,0.0,-9.19,-9.67,-9.61,0,*50
1546333510.4,35046,0.0,0.0,-9.19,-9.61,-9.67,0,*53
1546333511.6,35047,0.0,0.0,-9.19,-9.67,-9.67,0,*54
1546333512.83,35048,0.0,0.0,-9.19,-9.61,-9.67,0,*5D
1546333514.06,35049,0.0,0.0,-9.19,-9.61,-9.67,0,*5C
1546333515.31,35050,0.0,0.0,-9.19,-9.61,-9.61,0,*52
1546333516.54,35051,0.0,0.0,-9.19,-9.67,-9.61,0,*55
1546333517.79,35052,0.0,0.0,-9.19,-9.61,-9.61,0,*50
1546333519.04,35053,0.0,0.0,-9.19,-9.61,-9.61,0,*51
1546333520.27,35054,0.0,0.0,-9.19,-9.61,-9.67,0,*50
1546333521.52,35055,0.0,0.0,-9.19,-9.61,-9.61,0,*57
1546333522.74,35056,0.0,0.0,-9.19,-9.67,-9.61,0,*52
1546333523.97,35057,0.0,0.0,-9.19,-9.67,-9.61,0,*53
1546333525.22,35058,0.0,0.0,-9.19,-9.61,-9.61,0,*5A
1546333526.45,35059,0.0,0.0,-9.19,-9.61,-9.67,0,*5D
1546333527.68,35060,0.0,0.0,-9.19,-9.67,-9.61,0,*57
1546333528.91,35061,0.0,0.0,-9.19,-9.61,-9.67,0,*56
1546333530.11,35062,0.0,0.0,-9.19,-9.67,-9.67,0,*53
1546333531.36,35063,0.0,0.0,-9.19,-9.61,-9.61,0,*52
1546333532.61,35064,0.0,0.0,-9.21,-9.61,-9.67,0,*58
1546333533.84,35065,0.0,0.0,-9.19,-9.61,-9.67,0,*52
1546333535.07,35066,0.0,0.0,-9.19,-9.61,-9.67,0,*51
1546333536.29,35067,0.0,0.0,-9.21,-9.67,-9.67,0,*5D
1546333537.5,35068,0.0,0.0,-9.19,-9.67,-9.67,0,*59
1546333538.77,35069,0.0,0.0,-9.17,-9.57,-9.61,0,*53
1546333540.04,35070,0.0,0.0,-9.17,-9.57,-9.57,0,*5E
1546333541.31,35071,0.0,0.0,-9.17,-9.61,-9.57,0,*5A
1546333542.58,35072,0.0,0.0,-9.17,-9.57,-9.61,0,*59
1546333543.79,35073,0.0,0.0,-9.19,-9.67,-9.67,0,*53
1546333545.06,35074,0.0,0.0,-9.17,-9.61,-9.57,0,*5F
1546333546.33,35075,0.0,0.0,-9.17,-9.57,-9.57,0,*5B
1546333547.55,35076,0.0,0.0,-9.19,-9.61,-9.67,0,*50
1546333548.78,35077,0.0,0.0,-9.19,-9.67,-9.61,0,*51
1546333549.99,35078,0.0,0.0,-9.19,-9.67,-9.67,0,*58
1546333551.26,35079,0.0,0.0,-9.17,-9.49,-9.57,0,*58
1546333552.53,35080,0.0,0.0,-9.17,-9.61,-9.61,0,*51
1546333553.81,35081,0.0,0.0,-9.15,-9.61,-9.61,0,*52
1546333555.08,35082,0.0,0.0,-9.17,-9.61,-9.57,0,*56
1546333556.35,35083,0.0,0.0,-9.17,-9.61,-9.57,0,*57
1546333557.62,35084,0.0,0.0,-9.17,-9.57,-9.57,0,*55
1546333558.89,35085,0.0,0.0,-9.17,-9.57,-9.57,0,*54
1546333560.16,35086,0.0,0.0,-9.17,-9.61,-9.61,0,*57
1546333561.43,35087,0.0,0.0,-9.17,-9.57,-9.61,0,*53
1546333562.71,35088,0.0,0.0,-9.17,-9.61,-9.61,0,*59
1546333563.98,35089,0.0,0.0,-9.17,-9.61,-9.57,0,*5D
1546333565.25,35090,0.0,0.0,-9.17,-9.61,-9.61,0,*50
1546333566.52,35091,0.0,0.0,-9.17,-9.57,-9.57,0,*51
1546333567.8,35092,0.0,0.0,-9.17,-9.61,-9.57,0,*57
1546333569.07,35093,0.0,0.0,-9.17,-9.61,-9.57,0,*56
1546333570.33,35094,0.0,0.0,-9.17,-9.57,-9.57,0,*54
1546333571.61,35095,0.0,0.0,-9.17,-9.57,-9.61,0,*50
1546333572.88,35096,0.0,0.0,-9.15,-9.61,-9.57,0,*51
1546333574.14,35097,0.0,0.0,-9.15,-9.57,-9.61,0,*50
1546333575.42,35098,0.0,0.0,-9.17,-9.57,-9.61,0,*5D
1546333576.69,35099,0.0,0.0,-9.17,-9.61,-9.61,0,*59
1546333577.97,35100,0.0,0.0,-9.17,-9.61,-9.61,0,*58
1546333579.23,35101,0.0,0.0,-9.17,-9.57,-9.57,0,*59
1546333580.5,35102,0.0,0.0,-9.17,-9.57,-9.61,0,*5F
1546333581.78,35103,0.0,0.0,-9.17,-9.61,-9.61,0,*5B
1546333583.05,35104,0.0,0.0,-9.15,-9.57,-9.57,0,*5E
1546333584.32,35105,0.0,0.0,-9.17,-9.57,-9.61,0,*58
1546333585.59,35106,0.0,0.0,-9.15,-9.57,-9.61,0,*59
1546333586.86,35107,0.0,0.0,-9.17,-9.49,-9.57,0,*50
1546333588.13,35108,0.0,0.0,-9.17,-9.57,-9.57,0,*50
1546333589.4,35109,0.0,0.0,-9.17,-9.61,-9.61,0,*51
1546333590.68,35110,0.0,0.0,-9.17,-9.61,-9.57,0,*5C
1546333591.94,35111,0.0,0.0,-9.15,-9.57,-9.57,0,*5A
1546333593.21,35112,0.0,0.0,-9.15,-9.61,-9.61,0,*59
1546333594.48,35113,0.0,0.0,-9.17,-9.57,-9.57,0,*5A
1546333595.75,35114,0.0,0.0,-9.17,-9.57,-9.57,0,*5D
1546333597.02,35115,0.0,0.0,-9.15,-9.57,-9.61,0,*5B
1546333598.29,35116,0.0,0.0,-9.17,-9.57,-9.61,0,*5A
1546333599.56,35117,0.0,0.0,-9.15,-9.57,-9.57,0,*5C
1546333600.83,35118,0.0,0.0,-9.17,-9.61,-9.61,0,*51
1546333602.1,35119,0.0,0.0,-9.17,-9.57,-9.61,0,*55
1546333603.38,35120,0.0,0.0,-9.17,-9.49,-9.57,0,*55
1546333604.65,35121,0.0,0.0,-9.17,-9.57,-9.57,0,*5B
1546333605.92,35122,0.0,0.0,-9.17,-9.57,-9.61,0,*5D
1546333607.19,35123,0.0,0.0,-9.15,-9.57,-9.61,0,*5E
1546333608.46,35124,0.0,0.0,-9.15,-9.61,-9.57,0,*59
1546333609.73,35125,0.0,0.0,-9.17,-9.61,-9.57,0,*5A
1546333610.99,35126,0.0,0.0,-9.15,-9.57,-9.57,0,*5E
1546333612.26,35127,0.0,0.0,-9.17,-9.57,-9.57,0,*5D
1546333613.53,35128,0.0,0.0,-9.17,-9.61,-9.57,0,*57
1546333614.8,35129,0.0,0.0,-9.15,-9.61,-9.57,0,*54
1546333616.07,35130,0.0,0.0,-9.15,-9.57,-9.57,0,*59
1546333617.34,35131,0.0,0.0,-9.15,-9.61,-9.57,0,*5D
1546333618.61,35132,0.0,0.0,-9.15,-9.61,-9.61,0,*5B
1546333619.89,35133,0.0,0.0,-9.15,-9.61,-9.61,0,*5A
1546333621.15,35134,0.0,0.0,-9.17,-9.57,-9.57,0,*5F
1546333622.42,35135,0.0,0.0,-9.15,-9.57,-9.57,0,*5C
1546333623.69,35136,0.0,0.0,-9.17,-9.57,-9.57,0,*5D
1546333624.96,35137,0.0,0.0,-9.15,-9.57,-9.61,0,*5B
1546333626.23,35138,0.0,0.0,-9.15,-9.57,-9.61,0,*54
1546333627.5,35139,0.0,0.0,-9.15,-9.61,-9.61,0,*50
1546333628.77,35140,0.0,0.0,-9.17,-9.57,-9.57,0,*5C
1546333630.04,35141,0.0,0.0,-9.17,-9.57,-9.57,0,*5D
1546333631.3,35142,0.0,0.0,-9.15,-9.57,-9.61,0,*59
1546333632.57,35143,0.0,0.0,-9.15,-9.57,-9.57,0,*5D
1546333633.85,35144,0.0,0.0,-9.17,-9.61,-9.61,0,*58
1546333635.11,35145,0.0,0.0,-9.15,-9.61,-9.57,0,*5E
1546333636.39,35146,0.0,0.0,-9.15,-9.61,-9.57,0,*5D
1546333637.66,35147,0.0,0.0,-9.15,-9.61,-9.61,0,*59
1546333638.93,35148,0.0,0.0,-9.17,-9.61,-9.61,0,*54
1546333640.2,35149,0.0,0.0,-9.15,-9.61,-9.61,0,*57
1546333641.47,35150,0.0,0.0,-9.15,-9.61,-9.57,0,*5A
1546333642.75,35151,0.0,0.0,-9.15,-9.61,-9.61,0,*5E
1546333644.01,35152,0.0,0.0,-9.15,-9.57,-9.57,0,*5D
1546333645.28,35153,0.0,0.0,-9.17,-9.57,-9.57,0,*5E
1546333646.55,35154,0.0,0.0,-9.15,-9.57,-9.57,0,*5B
1546333647.82,35155,0.0,0.0,-9.17,-9.57,-9.57,0,*58
1546333649.09,35156,0.0,0.0,-9.15,-9.61,-9.57,0,*5C
1546333650.35,35157,0.0,0.0,-9.15,-9.57,-9.61,0,*5D
1546333651.62,35158,0.0,0.0,-9.15,-9.57,-9.61,0,*52
1546333652.89,35159,0.0,0.0,-9.15,-9.57,-9.57,0,*56
1546333654.16,35160,0.0,0.0,-9.15,-9.57,-9.61,0,*59
1546333655.43,35161,0.0,0.0,-9.17,-9.57,-9.61,0,*5A
1546333656.7,35162,0.0,0.0,-9.15,-9.57,-9.61,0,*5B
1546333657.97,35163,0.0,0.0,-9.15,-9.61,-9.61,0,*5F
1546333659.24,35164,0.0,0.0,-9.15,-9.57,-9.61,0,*5D
1546333660.51,35165,0.0,0.0,-9.17,-9.57,-9.57,0,*5B
1546333661.78,35166,0.0,0.0,-9.15,-9.57,-9.61,0,*5F
1546333663.05,35167,0.0,0.0,-9.15,-9.61,-9.57,0,*5E
1546333664.31,35168,0.0,0.0,-9.15,-9.57,-9.57,0,*54
1546333665.58,35169,0.0,0.0,-9.15,-9.57,-9.57,0,*55
1546333666.85,35170,0.0,0.0,-9.15,-9.57,-9.57,0,*5D
1546333668.12,35171,0.0,0.0,-9.15,-9.61,-9.57,0,*59
1546333669.39,35172,0.0,0.0,-9.15,-9.61,-9.61,0,*5F
1546333670.66,35173,0.0,0.0,-9.15,-9.57,-9.57,0,*5E
1546333671.93,35174,0.0,0.0,-9.15,-9.61,-9.57,0,*5C
1546333673.19,35175,0.0,0.0,-9.15,-9.57,-9.57,0,*58
1546333674.46,35176,0.0,0.0,-9.15,-9.61,-9.57,0,*5E
1546333675.73,35177,0.0,0.0,-9.15,-9.57,-9.61,0,*5F
1546333676.97,35178,0.0,0.0,-9.13,-9.57,-9.57,0,*53
1546333678.22,35179,0.0,0.0,-9.13,-9.57,-9.53,0,*56
1546333679.49,35180,0.0,0.0,-9.15,-9.61,-9.57,0,*57
1546333680.77,35181,0.0,0.0,-9.15,-9.61,-9.61,0,*53
1546333682.01,35182,0.0,0.0,-9.13,-9.57,-9.53,0,*52
1546333683.26,35183,0.0,0.0,-9.13,-9.53,-9.57,0,*53
1546333684.5,35184,0.0,0.0,-9.13,-9.57,-9.57,0,*50
1546333685.75,35185,0.0,0.0,-9.13,-9.57,-9.53,0,*55
1546333687.0,35186,0.0,0.0,-9.13,-9.45,-9.57,0,*51
1546333688.27,35187,0.0,0.0,-9.15,-9.57,-9.57,0,*55
1546333689.54,35188,0.0,0.0,-9.15,-9.57,-9.57,0,*5A
1546333690.79,35189,0.0,0.0,-9.13,-9.53,-9.53,0,*5D
1546333692.03,35190,0.0,0.0,-9.13,-9.57,-9.57,0,*55
1546333693.3,35191,0.0,0.0,-9.15,-9.57,-9.61,0,*57
1546333694.55,35192,0.0,0.0,-9.13,-9.53,-9.57,0,*53
1546333695.82,35193,0.0,0.0,-9.15,-9.57,-9.57,0,*50
1546333697.07,35194,0.0,0.0,-9.13,-9.53,-9.53,0,*51
1546333698.32,35195,0.0,0.0,-9.13,-9.53,-9.57,0,*54
1546333699.59,35196,0.0,0.0,-9.11,-9.57,-9.57,0,*51
1546333700.86,35197,0.0,0.0,-9.11,-9.53,-9.53,0,*50
1546333702.11,35198,0.0,0.0,-9.13,-9.57,-9.53,0,*59
1546333703.36,35199,0.0,0.0,-9.13,-9.53,-9.57,0,*58
1546333704.61,35200,0.0,0.0,-9.13,-9.53,-9.53,0,*5F
1546333705.88,35201,0.0,0.0,-9.11,-9.57,-9.57,0,*5C
1546333707.13,35202,0.0,0.0,-9.13,-9.57,-9.57,0,*5D
1546333708.38,35203,0.0,0.0,-9.13,-9.57,-9.53,0,*58
1546333709.66,35204,0.0,0.0,-9.11,-9.53,-9.53,0,*59
1546333710.91,35205,0.0,0.0,-9.13,-9.53,-9.53,0,*5A
1546333712.15,35206,0.0,0.0,-9.13,-9.57,-9.57,0,*59
1546333713.41,35207,0.0,0.0,-9.13,-9.53,-9.53,0,*58
1546333714.68,35208,0.0,0.0,-9.11,-9.53,-9.57,0,*51
1546333715.93,35209,0.0,0.0,-9.13,-9.53,-9.53,0,*56
1546333717.19,35210,0.0,0.0,-9.13,-9.53,-9.53,0,*5E
1546333718.44,35211,0.0,0.0,-9.13,-9.57,-9.53,0,*5B
1546333719.69,35212,0.0,0.0,-9.13,-9.53,-9.53,0,*5C
1546333720.96,35213,0.0,0.0,-9.15,-9.57,-9.61,0,*5E
1546333722.21,35214,0.0,0.0,-9.13,-9.53,-9.53,0,*5A
1546333723.45,35215,0.0,0.0,-9.13,-9.57,-9.57,0,*5B
1546333724.73,35216,0.0,0.0,-9.11,-9.57,-9.53,0,*5E
1546333725.98,35217,0.0,0.0,-9.13,-9.57,-9.53,0,*5D
1546333727.23,35218,0.0,0.0,-9.13,-9.53,-9.53,0,*56
1546333728.48,35219,0.0,0.0,-9.13,-9.53,-9.57,0,*53
1546333729.73,35220,0.0,0.0,-9.13,-9.53,-9.53,0,*5D
1546333730.98,35221,0.0,0.0,-9.13,-9.53,-9.57,0,*58
1546333732.22,35222,0.0,0.0,-9.13,-9.57,-9.57,0,*5F
1546333733.48,35223,0.0,0.0,-9.13,-9.53,-9.53,0,*5E
1546333734.72,35224,0.0,0.0,-9.13,-9.53,-9.57,0,*5D
1546333735.99,35225,0.0,0.0,-9.11,-9.57,-9.57,0,*5A
1546333737.25,35226,0.0,0.0,-9.13,-9.53,-9.53,0,*5B
1546333738.5,35227,0.0,0.0,-9.13,-9.53,-9.53,0,*5A
1546333739.78,35228,0.0,0.0,-9.11,-9.53,-9.53,0,*57
1546333741.06,35229,0.0,0.0,-9.11,-9.53,-9.53,0,*56
1546333742.34,35230,0.0,0.0,-9.11,-9.57,-9.53,0,*5A
1546333743.58,35231,0.0,0.0,-9.13,-9.53,-9.57,0,*59
1546333744.86,35232,0.0,0.0,-9.11,-9.57,-9.53,0,*58
1546333746.13,35233,0.0,0.0,-9.11,-9.53,-9.57,0,*59
1546333747.37,35234,0.0,0.0,-9.13,-9.57,-9.57,0,*58
1546333748.63,35235,0.0,0.0,-9.13,-9.53,-9.53,0,*59
1546333749.88,35236,0.0,0.0,-9.13,-9.53,-9.53,0,*5A
1546333751.14,35237,0.0,0.0,-9.13,-9.53,-9.53,0,*5B
1546333752.39,35238,0.0,0.0,-9.13,-9.53,-9.53,0,*54
1546333753.61,35239,0.0,0.0,-9.13,-9.53,-9.67,0,*52
1546333754.87,35240,0.0,0.0,-9.13,-9.57,-9.53,0,*5F
1546333756.14,35241,0.0,0.0,-9.11,-9.53,-9.57,0,*5C
1546333757.41,35242,0.0,0.0,-9.11,-9.57,-9.57,0,*5B
1546333758.68,35243,0.0,0.0,-9.11,-9.57,-9.53,0,*5E
1546333759.93,35244,0.0,0.0,-9.13,-9.57,-9.57,0,*5F
1546333761.17,35245,0.0,0.0,-9.13,-9.57,-9.57,0,*5E
1546333762.42,35246,0.0,0.0,-9.13,-9.57,-9.53,0,*59
1546333763.67,35247,0.0,0.0,-9.13,-9.57,-9.53,0,*58
1546333764.92,35248,0.0,0.0,-9.13,-9.57,-9.53,0,*57
1546333766.16,35249,0.0,0.0,-9.13,-9.57,-9.57,0,*52
1546333767.41,35250,0.0,0.0,-9.13,-9.53,-9.57,0,*5E
1546333768.66,35251,0.0,0.0,-9.13,-9.53,-9.53,0,*5B
1546333769.91,35252,0.0,0.0,-9.13,-9.57,-9.53,0,*5C
1546333771.18,35253,0.0,0.0,-9.11,-9.57,-9.57,0,*5B
1546333772.42,35254,0.0,0.0,-9.13,-9.57,-9.57,0,*5E